Tracking 29040 objects as of 15-Jun-2024
HD Live streaming from Space Station
objects crossing your sky now

STARLINK-31971

Track STARLINK-31971 now!
10-day predictions
STARLINK-31971 is classified as:


NORAD ID: 59934
Int'l Code: 2024-106N
Perigee: 278.3 km
Apogee: 281.8 km
Inclination: 43.0 °
Period: 90.0 minutes
Semi major axis: 6651 km
RCS: Unknown
Launch date: June 1, 2024
Source: United States (US)
Launch site: AIR FORCE EASTERN TEST RANGE (AFETR)
Your satellite tracking list
Your tracking list is empty




NASA's NSSDC Master Catalog

Two Line Element Set (TLE):
1 59934U 24106N   24166.86889013  .00036808  91204-5  71635-4 0  9997
2 59934  42.9997 339.8934 0002661 254.2016 105.8569 16.00548384  3237
Source of the keplerian elements: AFSPC